Home > Weather > Angels Camp > Past weeks

Flag for USA Past Weather in Angels Camp, California, USA — Yesterday and Last 2 Weeks

Now
93 °F

Sunny.


Feels Like: 90 °F
Forecast: 58 / 104 °F
Wind: 9 mph from Northwest

Location: Modesto City-County-Sham Field

Current Time: Jul 24, 2016 at 9:39:27 PM

Latest Report: Jul 24, 2016 at 8:53 PM


Visibility: 10 mi

Pressure: 29.78 "Hg

Humidity: 23%

Dew Point: 50 °F

Location of Angels CampLocation

Past Weather in Angels Camp — Graph

°F

Angels Camp Temperature Yesterday

Maximum temperature yesterday: 102 °F (at 4:53 PM)
Minimum temperature yesterday: 65 °F (at 5:53 AM)
Average temperature yesterday: 84 °F

High & Low Weather Summary for the Past Weeks

 TemperatureHumidityPressure
High105 °F (Jul 24, 4:53 PM)76% (Jul 24, 5:53 AM)30.07 "Hg (Jul 24, 5:53 AM)
Low56 °F (Jul 10, 5:53 AM)11% (Jul 13, 5:53 PM)29.75 "Hg (Jul 16, 5:53 PM)
Average80 °F36%29.91 "Hg
* Reported Jul 9 7:53 PM — Jul 24 7:53 PM, Angels Camp, Weather by CustomWeather, © 2016

Note: Actual official high and low records may vary slightly from our data, if they occured in-between our weather recording intervals... More about our weather records

Advertising

Angels Camp Weather History for the Previous 24 Hours

Scroll right to see more
 ConditionsComfort  
Time TempWeatherWind HumidityBarometerVisibility
7:53 PM
Sun, Jul 24
99 °FSunny.12 mph21%29.77 "Hg10 mi
6:53 PM104 °FSunny.7 mph15%29.76 "Hg10 mi
5:53 PM105 °FSunny.5 mph14%29.76 "Hg10 mi
4:53 PM105 °FSunny.7 mph12%29.77 "Hg10 mi
3:53 PM104 °FSunny.N/A16%29.77 "Hg10 mi
2:53 PM104 °FSunny.3 mph15%29.78 "Hg10 mi
1:53 PM101 °FSunny.No wind17%29.80 "Hg10 mi
12:53 PM97 °FSunny.No wind18%29.81 "Hg10 mi
11:53 AM94 °FSunny.3 mph20%29.82 "Hg10 mi
10:53 AM92 °FSunny.5 mph22%29.82 "Hg10 mi
9:53 AM85 °FSunny.No wind30%29.83 "Hg10 mi
8:53 AM82 °FSunny.3 mph33%29.83 "Hg10 mi
7:53 AM77 °FSunny.No wind42%29.82 "Hg10 mi
6:53 AM71 °FClear.No wind55%29.80 "Hg10 mi
5:53 AM65 °FClear.N/A76%29.78 "Hg10 mi
4:53 AM69 °FClear.No wind63%29.78 "Hg10 mi
3:53 AM69 °FClear.No wind59%29.77 "Hg10 mi
2:53 AM72 °FClear.No wind52%29.78 "Hg10 mi
1:53 AM75 °FClear.No wind45%29.78 "Hg10 mi
12:53 AM78 °FClear.No wind37%29.78 "Hg10 mi
11:53 PM
Sat, Jul 23
80 °FClear.7 mph36%29.79 "Hg10 mi
10:53 PM81 °FClear.No wind33%29.79 "Hg10 mi
9:53 PM86 °FClear.9 mph27%29.78 "Hg10 mi
Weather by CustomWeather, © 2016

See weather overviewHow to use our weather pages